Regional Weather Roundup
Issued by NWS

Home | Current Version | Previous Version | Graphics & Text | Print | Product List | Glossary On
Versions: 1 2 3 4 5 6 7 8 9 10 11 12 13 14 15 16 17 18 19 20 21 22 23 24 25 26 27 28 29 30 31 32 33 34 35 36 37 38 39 40 41 42 43 44 45 46 47 48 49 50
258
ASUS43 KTOP 240308
RWRKS

WEATHER ROUNDUP FOR KANSAS
NATIONAL WEATHER SERVICE GOODLAND KS
900 PM CST MON JAN 23 2017

NOTE:  "FAIR" INDICATES FEW OR NO CLOUDS BELOW 12,000 FEET WITH NO
SIGNIFICANT WEATHER AND/OR OBSTRUCTIONS TO VISIBILITY.

KSZ001>006-013>018-027>032-041>047-240400-
NORTHWEST KANSAS

CITY           SKY/WX    TMP DP  RH WIND       PRES   REMARKS
GOODLAND       CLEAR     32  26  78 E6        29.51F
HAYS           CLEAR     39  33  79 SE10      29.61F WCI  32
HILL CITY      CLEAR     42  35  76 SE10      29.58F
RUSSELL        CLEAR     40  32  73 SE17      29.61F WCI  31
$$

KSZ061>065-074>080-084>089-240400-
SOUTHWEST KANSAS

CITY           SKY/WX    TMP DP  RH WIND       PRES   REMARKS
DODGE CITY     CLEAR     42  34  73 SE12      29.57F
ELKHART          N/A     48  24  39 SW10        N/A
GARDEN CITY    CLOUDY    41  32  70 SE12      29.55F
GREAT BEND     CLEAR     41  34  76 SE12      29.62F
LIBERAL          N/A     43  25  49 SW8       29.56F
PRATT          CLEAR     43  32  66 SE12G17   29.62F
$$

KSZ066>073-081>083-090>101-240400-
SOUTHEAST KANSAS

CITY           SKY/WX    TMP DP  RH WIND       PRES   REMARKS
CHANUTE        CLEAR     41  34  76 SE9       29.79F
COFFEYVILLE    CLEAR     39  33  79 E7        29.79F
HUTCHINSON     CLEAR     43  32  65 SE13      29.67F
MEDICINE LODGE   N/A     44  34  67 SE10      29.63F
PARSONS        CLEAR     39  33  79 E3        29.79F
WICHITA INTL   CLEAR     45  32  60 SE13      29.69S
WICHITA JABRA  CLEAR     43  32  65 SE10      29.70F
WICHITA MCCONL CLEAR     44  32  62 SE13      29.70S
WINFIELD       CLEAR     45  33  63 SE12      29.72F
$$

KSZ007>012-019>026-033>040-048>060-102>105-240400-
NORTHEAST KANSAS

CITY           SKY/WX    TMP DP  RH WIND       PRES   REMARKS
CONCORDIA      CLEAR     35  34  96 E10       29.72S WCI  27
EMPORIA        CLEAR     40  33  76 SE9       29.77S
LAWRENCE       CLEAR     32  30  92 E7        29.83S FOG
MANHATTAN      CLEAR     35  33  92 NE3       29.76F
MARYSVILLE     CLEAR     32  32 100 SE13      29.77S FOG     WCI  22
OLATHE IND     CLEAR     33  31  92 E6        29.83S FOG
OLATHE EXE     CLEAR     33  32  96 SE5       29.83S
SALINA         CLEAR     45  32  60 E9        29.71F
TOPEKA BILLARD CLEAR     34  30  85 E7        29.81F
TOPEKA FORBES  CLEAR     36  32  85 SE8       29.80S
$$




USA.gov is the U.S. government's official web portal to all federal, state and local government web resources and services.